DAL1255 SKBQ-SVMI

Flight info

Callsign DAL1255
Flight time 1h 12m
Altitude FL330
Route VUMB2B DAGMI A552 MAKBU UQ125 UTKIV MAU UW52 LIXIL PBL ALDAK1
Aircraft B733/M-S/NAEXS

Departure

Time 2026-04-28 22:12
Airport Ernesto Cortissoz International Airport (SKBQ)

Arrival

Time 2026-04-28 23:25
Airport Maiquetía Simón Bolívar International Airport (SVMI)
Time Latitude Longitude Altitude Speed Heading
2026-04-28 21:21 10.88911 -74.77651 105 ft 0 kts 129°
2026-04-28 21:55 10.88914 -74.77655 105 ft 2 kts 129°
2026-04-28 21:55 10.88925 -74.77668 105 ft 3 kts 129°
2026-04-28 21:55 10.88936 -74.77682 105 ft 3 kts 129°
2026-04-28 21:56 10.88950 -74.77699 105 ft 3 kts 129°
2026-04-28 21:56 10.88955 -74.77705 105 ft 0 kts 129°
2026-04-28 21:59 10.88951 -74.77703 105 ft 1 kts 156°
2026-04-28 21:59 10.88944 -74.77704 105 ft 1 kts 203°
2026-04-28 22:00 10.88918 -74.77732 105 ft 5 kts 227°
2026-04-28 22:00 10.88890 -74.77762 105 ft 7 kts 227°
2026-04-28 22:00 10.88852 -74.77801 105 ft 9 kts 220°
2026-04-28 22:00 10.88803 -74.77844 105 ft 10 kts 220°
2026-04-28 22:01 10.88744 -74.77891 105 ft 11 kts 219°
2026-04-28 22:01 10.88689 -74.77934 105 ft 9 kts 215°
2026-04-28 22:01 10.88643 -74.77970 105 ft 8 kts 220°
2026-04-28 22:01 10.88605 -74.78003 105 ft 7 kts 220°
2026-04-28 22:02 10.88572 -74.78032 105 ft 6 kts 220°
2026-04-28 22:02 10.88547 -74.78058 105 ft 5 kts 237°
2026-04-28 22:02 10.88536 -74.78087 105 ft 4 kts 258°
2026-04-28 22:02 10.88532 -74.78117 105 ft 4 kts 263°
2026-04-28 22:03 10.88529 -74.78146 105 ft 4 kts 265°
2026-04-28 22:03 10.88527 -74.78176 105 ft 4 kts 266°
2026-04-28 22:03 10.88522 -74.78204 105 ft 4 kts 249°
2026-04-28 22:03 10.88509 -74.78226 105 ft 3 kts 226°
2026-04-28 22:04 10.88493 -74.78239 105 ft 3 kts 217°
2026-04-28 22:04 10.88479 -74.78249 105 ft 2 kts 217°
2026-04-28 22:04 10.88467 -74.78260 105 ft 2 kts 222°
2026-04-28 22:04 10.88453 -74.78272 105 ft 3 kts 220°
2026-04-28 22:05 10.88437 -74.78286 105 ft 3 kts 219°
2026-04-28 22:05 10.88419 -74.78301 105 ft 4 kts 219°
2026-04-28 22:05 10.88399 -74.78317 105 ft 4 kts 219°
2026-04-28 22:05 10.88378 -74.78335 105 ft 4 kts 219°
2026-04-28 22:06 10.88355 -74.78354 105 ft 5 kts 219°
2026-04-28 22:06 10.88329 -74.78375 105 ft 5 kts 219°
2026-04-28 22:06 10.88302 -74.78398 105 ft 5 kts 219°
2026-04-28 22:06 10.88272 -74.78423 105 ft 6 kts 219°
2026-04-28 22:07 10.88240 -74.78449 105 ft 6 kts 219°
2026-04-28 22:07 10.88207 -74.78476 105 ft 6 kts 219°
2026-04-28 22:07 10.88173 -74.78505 105 ft 7 kts 219°
2026-04-28 22:07 10.88137 -74.78535 105 ft 7 kts 219°
2026-04-28 22:08 10.88099 -74.78566 105 ft 7 kts 219°
2026-04-28 22:08 10.88060 -74.78598 105 ft 7 kts 219°
2026-04-28 22:08 10.88019 -74.78632 105 ft 8 kts 219°
2026-04-28 22:08 10.87977 -74.78667 105 ft 8 kts 219°
2026-04-28 22:09 10.87947 -74.78691 105 ft 8 kts 219°
2026-04-28 22:09 10.87888 -74.78740 105 ft 8 kts 219°
2026-04-28 22:09 10.87845 -74.78780 105 ft 8 kts 247°
2026-04-28 22:09 10.87840 -74.78815 105 ft 8 kts 276°
2026-04-28 22:10 10.87863 -74.78863 105 ft 5 kts 312°
2026-04-28 22:10 10.87888 -74.78892 105 ft 6 kts 311°
2026-04-28 22:10 10.87923 -74.78908 105 ft 6 kts 13°
2026-04-28 22:10 10.87951 -74.78891 105 ft 0 kts 39°
2026-04-28 22:11 10.87952 -74.78891 105 ft 0 kts 39°
2026-04-28 22:11 10.88009 -74.78843 105 ft 34 kts 39°
2026-04-28 22:11 10.88369 -74.78547 105 ft 97 kts 40°
2026-04-28 22:12 10.88999 -74.78023 105 ft 147 kts 39°
2026-04-28 22:12 10.89881 -74.77285 194 ft 181 kts 41°
2026-04-28 22:12 10.90874 -74.76410 673 ft 195 kts 43°
2026-04-28 22:12 10.91901 -74.75454 1330 ft 206 kts 45°
2026-04-28 22:13 10.92902 -74.74345 2006 ft 216 kts 52°
2026-04-28 22:13 10.93716 -74.73048 2679 ft 226 kts 68°
2026-04-28 22:13 10.94005 -74.71401 2891 ft 254 kts 100°
2026-04-28 22:13 10.93214 -74.69816 3499 ft 258 kts 137°
2026-04-28 22:14 10.91647 -74.68970 4300 ft 258 kts 170°
2026-04-28 22:14 10.89864 -74.68799 5114 ft 261 kts 178°
2026-04-28 22:14 10.88046 -74.68721 5940 ft 264 kts 177°
2026-04-28 22:14 10.86197 -74.68569 6749 ft 268 kts 175°
2026-04-28 22:15 10.84339 -74.68363 7563 ft 270 kts 174°
2026-04-28 22:15 10.82473 -74.68106 8357 ft 272 kts 173°
2026-04-28 22:15 10.80597 -74.67793 9106 ft 276 kts 166°
2026-04-28 22:15 10.78931 -74.66841 9818 ft 283 kts 138°
2026-04-28 22:16 10.77876 -74.65126 10325 ft 301 kts 111°
2026-04-28 22:16 10.77689 -74.62902 10613 ft 326 kts 85°
2026-04-28 22:16 10.78191 -74.60647 11120 ft 337 kts 81°
2026-04-28 22:16 10.78394 -74.58282 11783 ft 339 kts 89°
2026-04-28 22:17 10.78470 -74.55867 12462 ft 342 kts 92°
2026-04-28 22:17 10.78490 -74.53425 13146 ft 346 kts 93°
2026-04-28 22:17 10.78497 -74.51026 13626 ft 355 kts 93°
2026-04-28 22:17 10.78493 -74.48430 14292 ft 358 kts 93°
2026-04-28 22:18 10.78481 -74.45913 15071 ft 357 kts 93°
2026-04-28 22:18 10.78461 -74.43381 15737 ft 359 kts 94°
2026-04-28 22:18 10.78434 -74.40821 16346 ft 362 kts 94°
2026-04-28 22:18 10.78402 -74.38291 16936 ft 365 kts 94°
2026-04-28 22:19 10.78365 -74.35683 17517 ft 368 kts 94°
2026-04-28 22:19 10.78324 -74.33080 18069 ft 372 kts 94°
2026-04-28 22:19 10.78279 -74.30433 18591 ft 375 kts 94°
2026-04-28 22:19 10.78232 -74.27840 19117 ft 378 kts 94°
2026-04-28 22:20 10.78184 -74.25471 19585 ft 381 kts 94°
2026-04-28 22:20 10.78127 -74.22757 20098 ft 384 kts 94°
2026-04-28 22:20 10.78069 -74.20070 20624 ft 385 kts 94°
2026-04-28 22:20 10.78010 -74.17366 21240 ft 385 kts 94°
2026-04-28 22:21 10.77949 -74.14605 21730 ft 388 kts 94°
2026-04-28 22:21 10.77887 -74.11872 22149 ft 392 kts 94°
2026-04-28 22:21 10.77824 -74.09105 22582 ft 396 kts 94°
2026-04-28 22:21 10.77758 -74.06272 23024 ft 400 kts 94°
2026-04-28 22:22 10.77696 -74.03526 23925 ft 391 kts 94°
2026-04-28 22:22 10.77631 -74.00729 24484 ft 395 kts 94°
2026-04-28 22:22 10.77561 -73.97903 24999 ft 399 kts 94°
2026-04-28 22:22 10.77490 -73.95052 25518 ft 403 kts 94°
2026-04-28 22:23 10.77421 -73.92217 26048 ft 406 kts 94°
2026-04-28 22:23 10.77350 -73.89339 26567 ft 409 kts 94°
2026-04-28 22:23 10.77278 -73.86437 27053 ft 413 kts 94°
2026-04-28 22:23 10.77205 -73.83529 27524 ft 416 kts 94°
2026-04-28 22:24 10.77131 -73.80587 28081 ft 417 kts 94°
2026-04-28 22:24 10.77056 -73.77625 28535 ft 420 kts 94°
2026-04-28 22:24 10.76983 -73.74753 28940 ft 423 kts 94°
2026-04-28 22:24 10.76909 -73.71753 29393 ft 425 kts 94°
2026-04-28 22:25 10.76837 -73.68842 29885 ft 425 kts 94°
2026-04-28 22:25 10.76758 -73.65824 30231 ft 429 kts 94°
2026-04-28 22:25 10.76683 -73.62765 30572 ft 432 kts 94°
2026-04-28 22:25 10.76602 -73.59730 30998 ft 433 kts 94°
2026-04-28 22:26 10.76525 -73.56673 31472 ft 432 kts 94°
2026-04-28 22:26 10.76446 -73.53631 31862 ft 434 kts 94°
2026-04-28 22:26 10.76367 -73.50557 32126 ft 438 kts 94°
2026-04-28 22:26 10.76282 -73.47465 32472 ft 439 kts 94°
2026-04-28 22:27 10.76203 -73.44370 32812 ft 441 kts 94°
2026-04-28 22:27 10.76033 -73.38052 32916 ft 452 kts 94°
2026-04-28 22:28 10.75871 -73.31745 32913 ft 445 kts 94°
2026-04-28 22:28 10.75705 -73.25560 32918 ft 446 kts 94°
2026-04-28 22:29 10.75539 -73.19252 32914 ft 445 kts 94°
2026-04-28 22:29 10.75366 -73.12989 32917 ft 445 kts 94°
2026-04-28 22:30 10.75194 -73.06684 32918 ft 448 kts 94°
2026-04-28 22:30 10.75021 -73.00345 32918 ft 450 kts 94°
2026-04-28 22:31 10.74847 -72.94032 32918 ft 446 kts 94°
2026-04-28 22:31 10.74673 -72.87763 32915 ft 446 kts 94°
2026-04-28 22:32 10.74492 -72.81460 32918 ft 445 kts 94°
2026-04-28 22:32 10.74317 -72.75281 32917 ft 443 kts 94°
2026-04-28 22:33 10.74142 -72.69070 32915 ft 439 kts 94°
2026-04-28 22:33 10.73954 -72.62908 32866 ft 444 kts 94°
2026-04-28 22:34 10.73754 -72.56511 32842 ft 456 kts 92°
2026-04-28 22:34 10.73551 -72.50007 32841 ft 465 kts 92°
2026-04-28 22:35 10.73343 -72.43416 32839 ft 473 kts 92°
2026-04-28 22:35 10.73132 -72.36687 32826 ft 480 kts 91°
2026-04-28 22:36 10.72918 -72.29876 32821 ft 485 kts 91°
2026-04-28 22:36 10.72703 -72.23099 32818 ft 489 kts 91°
2026-04-28 22:37 10.72484 -72.16253 32817 ft 492 kts 91°
2026-04-28 22:37 10.72257 -72.09228 32815 ft 496 kts 91°
2026-04-28 22:38 10.72028 -72.02205 32815 ft 498 kts 90°
2026-04-28 22:38 10.71801 -71.95267 32812 ft 498 kts 90°
2026-04-28 22:39 10.71566 -71.88164 32810 ft 498 kts 90°
2026-04-28 22:39 10.71333 -71.81135 32809 ft 497 kts 90°
2026-04-28 22:40 10.71105 -71.74321 32809 ft 497 kts 90°
2026-04-28 22:40 10.70874 -71.67469 32811 ft 497 kts 91°
2026-04-28 22:41 10.70635 -71.60408 32812 ft 497 kts 91°
2026-04-28 22:41 10.70397 -71.53424 32813 ft 497 kts 91°
2026-04-28 22:42 10.70158 -71.46456 32820 ft 496 kts 92°
2026-04-28 22:42 10.69916 -71.39435 32824 ft 491 kts 92°
2026-04-28 22:43 10.69675 -71.32519 32829 ft 491 kts 92°
2026-04-28 22:43 10.69437 -71.25731 32834 ft 491 kts 92°
2026-04-28 22:44 10.69199 -71.18922 32841 ft 478 kts 93°
2026-04-28 22:44 10.68958 -71.12147 32850 ft 481 kts 92°
2026-04-28 22:45 10.68717 -71.05391 32858 ft 485 kts 93°
2026-04-28 22:45 10.68383 -70.98581 32869 ft 472 kts 96°
2026-04-28 22:46 10.67966 -70.91989 32859 ft 465 kts 96°
2026-04-28 22:46 10.67548 -70.85393 32875 ft 473 kts 96°
2026-04-28 22:47 10.67126 -70.78691 32878 ft 473 kts 96°
2026-04-28 22:47 10.66734 -70.72322 32870 ft 457 kts 96°
2026-04-28 22:48 10.66349 -70.66152 32884 ft 465 kts 96°
2026-04-28 22:48 10.65923 -70.59299 32891 ft 465 kts 96°
2026-04-28 22:49 10.65525 -70.52903 32897 ft 457 kts 96°
2026-04-28 22:49 10.65057 -70.45375 32905 ft 453 kts 96°
2026-04-28 22:50 10.64720 -70.40030 32914 ft 454 kts 96°
2026-04-28 22:50 10.64240 -70.32609 32912 ft 452 kts 96°
2026-04-28 22:51 10.63906 -70.27520 32915 ft 454 kts 96°
2026-04-28 22:51 10.63475 -70.20982 32915 ft 455 kts 96°
2026-04-28 22:52 10.63057 -70.14657 32913 ft 454 kts 96°
2026-04-28 22:52 10.62633 -70.08238 32916 ft 454 kts 96°
2026-04-28 22:53 10.62215 -70.01894 32914 ft 448 kts 96°
2026-04-28 22:53 10.61795 -69.95556 32915 ft 450 kts 96°
2026-04-28 22:54 10.61375 -69.89252 32914 ft 448 kts 96°
2026-04-28 22:54 10.60956 -69.82966 32916 ft 450 kts 96°
2026-04-28 22:55 10.60465 -69.75649 32914 ft 449 kts 96°
2026-04-28 22:55 10.60112 -69.70389 32918 ft 449 kts 96°
2026-04-28 22:56 10.59640 -69.64120 32914 ft 444 kts 97°
2026-04-28 22:56 10.59150 -69.57930 32916 ft 445 kts 97°
2026-04-28 22:57 10.58561 -69.50519 32916 ft 454 kts 97°
2026-04-28 22:57 10.58055 -69.44135 32915 ft 452 kts 97°
2026-04-28 22:58 10.57640 -69.38843 32917 ft 448 kts 97°
2026-04-28 22:58 10.57148 -69.32587 32912 ft 444 kts 97°
2026-04-28 22:59 10.56573 -69.25370 32915 ft 444 kts 97°
2026-04-28 22:59 10.56082 -69.19167 32917 ft 441 kts 97°
2026-04-28 23:00 10.55596 -69.13049 32915 ft 439 kts 97°
2026-04-28 23:00 10.55096 -69.06770 32916 ft 444 kts 97°
2026-04-28 23:01 10.54602 -69.00576 32915 ft 443 kts 97°
2026-04-28 23:01 10.54101 -68.94353 32916 ft 438 kts 97°
2026-04-28 23:02 10.53693 -68.88264 32910 ft 439 kts 96°
2026-04-28 23:02 10.53348 -68.83038 32917 ft 446 kts 96°
2026-04-28 23:03 10.52885 -68.76049 32911 ft 438 kts 96°
2026-04-28 23:03 10.52682 -68.72975 32681 ft 430 kts 96°
2026-04-28 23:03 10.52479 -68.69971 31962 ft 426 kts 96°
2026-04-28 23:03 10.52283 -68.67020 31173 ft 425 kts 96°
2026-04-28 23:04 10.52078 -68.63999 30499 ft 420 kts 96°
2026-04-28 23:04 10.51688 -68.58181 29306 ft 411 kts 96°
2026-04-28 23:04 10.51490 -68.55274 28712 ft 408 kts 97°
2026-04-28 23:05 10.51298 -68.52421 28125 ft 405 kts 97°
2026-04-28 23:05 10.51103 -68.49573 27545 ft 403 kts 97°
2026-04-28 23:05 10.50914 -68.46767 26969 ft 401 kts 97°
2026-04-28 23:05 10.50722 -68.43949 26390 ft 398 kts 97°
2026-04-28 23:06 10.50537 -68.41207 25827 ft 396 kts 97°
2026-04-28 23:06 10.50343 -68.38359 25243 ft 394 kts 97°
2026-04-28 23:06 10.50154 -68.35630 24684 ft 392 kts 97°
2026-04-28 23:06 10.49967 -68.32879 24116 ft 391 kts 97°
2026-04-28 23:07 10.49778 -68.30130 23558 ft 389 kts 97°
2026-04-28 23:07 10.49651 -68.28278 23174 ft 388 kts 97°
2026-04-28 23:07 10.49412 -68.24782 22457 ft 386 kts 97°
2026-04-28 23:07 10.49224 -68.22059 21895 ft 384 kts 97°
2026-04-28 23:08 10.49104 -68.20314 21540 ft 383 kts 97°
2026-04-28 23:08 10.48920 -68.17648 20991 ft 381 kts 97°
2026-04-28 23:08 10.48675 -68.14081 20265 ft 378 kts 97°
2026-04-28 23:08 10.48488 -68.11388 19711 ft 376 kts 97°
2026-04-28 23:09 10.48305 -68.08743 19175 ft 373 kts 97°
2026-04-28 23:09 10.48366 -68.06127 18538 ft 378 kts 82°
2026-04-28 23:09 10.48961 -68.03546 18091 ft 373 kts 81°
2026-04-28 23:09 10.49587 -68.01004 17557 ft 372 kts 78°
2026-04-28 23:10 10.50231 -67.98457 17008 ft 371 kts 78°
2026-04-28 23:10 10.50642 -67.96817 16677 ft 369 kts 78°
2026-04-28 23:10 10.51476 -67.93456 16055 ft 365 kts 79°
2026-04-28 23:10 10.52089 -67.90950 15511 ft 364 kts 79°
2026-04-28 23:11 10.52693 -67.88464 14988 ft 362 kts 79°
2026-04-28 23:11 10.53289 -67.86009 14467 ft 359 kts 79°
2026-04-28 23:11 10.53882 -67.83537 13949 ft 357 kts 79°
2026-04-28 23:11 10.54462 -67.81116 13442 ft 355 kts 79°
2026-04-28 23:12 10.55042 -67.78695 12939 ft 353 kts 79°
2026-04-28 23:12 10.55591 -67.76361 12442 ft 352 kts 80°
2026-04-28 23:12 10.56134 -67.73983 11912 ft 336 kts 79°
2026-04-28 23:12 10.56487 -67.72539 11694 ft 318 kts 79°
2026-04-28 23:13 10.57160 -67.69742 11295 ft 286 kts 80°
2026-04-28 23:13 10.57613 -67.67853 11019 ft 266 kts 80°
2026-04-28 23:13 10.58015 -67.66029 10751 ft 267 kts 86°
2026-04-28 23:13 10.58061 -67.64160 10509 ft 261 kts 97°
2026-04-28 23:14 10.58054 -67.62327 10374 ft 265 kts 92°
2026-04-28 23:14 10.58123 -67.60458 10342 ft 269 kts 92°
2026-04-28 23:14 10.58196 -67.58543 10233 ft 268 kts 92°
2026-04-28 23:14 10.58265 -67.56661 9795 ft 268 kts 92°
2026-04-28 23:15 10.58335 -67.54764 9331 ft 269 kts 91°
2026-04-28 23:15 10.58403 -67.52884 8946 ft 267 kts 90°
2026-04-28 23:15 10.58472 -67.51005 8570 ft 265 kts 90°
2026-04-28 23:15 10.58515 -67.49814 8331 ft 264 kts 90°
2026-04-28 23:16 10.58604 -67.47295 7834 ft 260 kts 90°
2026-04-28 23:16 10.58670 -67.45465 7475 ft 256 kts 90°
2026-04-28 23:16 10.58734 -67.43691 7142 ft 249 kts 90°
2026-04-28 23:16 10.58793 -67.41945 6789 ft 244 kts 90°
2026-04-28 23:17 10.58854 -67.40250 6438 ft 239 kts 90°
2026-04-28 23:17 10.58911 -67.38593 6088 ft 235 kts 90°
2026-04-28 23:17 10.58966 -67.36955 5720 ft 232 kts 90°
2026-04-28 23:17 10.59025 -67.35307 5332 ft 230 kts 91°
2026-04-28 23:18 10.59079 -67.33697 4959 ft 228 kts 91°
2026-04-28 23:18 10.59130 -67.32103 4663 ft 223 kts 91°
2026-04-28 23:18 10.59176 -67.30575 4417 ft 213 kts 91°
2026-04-28 23:18 10.59231 -67.29099 4154 ft 206 kts 91°
2026-04-28 23:19 10.59290 -67.27678 4004 ft 194 kts 90°
2026-04-28 23:19 10.59346 -67.26437 3972 ft 182 kts 90°
2026-04-28 23:19 10.59406 -67.25145 3961 ft 181 kts 90°
2026-04-28 23:19 10.59465 -67.23856 3967 ft 179 kts 90°
2026-04-28 23:20 10.59528 -67.22599 3968 ft 179 kts 90°
2026-04-28 23:20 10.59590 -67.21364 3971 ft 175 kts 90°
2026-04-28 23:20 10.59652 -67.20125 3847 ft 174 kts 91°
2026-04-28 23:20 10.59714 -67.18902 3638 ft 172 kts 90°
2026-04-28 23:21 10.59777 -67.17701 3431 ft 167 kts 90°
2026-04-28 23:21 10.59838 -67.16544 3215 ft 160 kts 90°
2026-04-28 23:21 10.59895 -67.15455 3005 ft 155 kts 91°
2026-04-28 23:21 10.59950 -67.14389 2802 ft 151 kts 90°
2026-04-28 23:22 10.60004 -67.13347 2600 ft 149 kts 90°
2026-04-28 23:22 10.60039 -67.12643 2456 ft 146 kts 90°
2026-04-28 23:22 10.60110 -67.11281 2196 ft 144 kts 91°
2026-04-28 23:22 10.60130 -67.10293 1962 ft 141 kts 92°
2026-04-28 23:23 10.60153 -67.09299 1735 ft 140 kts 94°
2026-04-28 23:23 10.60199 -67.08322 1524 ft 140 kts 89°
2026-04-28 23:23 10.60293 -67.07335 1310 ft 140 kts 89°
2026-04-28 23:23 10.60363 -67.06361 1135 ft 138 kts 90°
2026-04-28 23:24 10.60409 -67.05381 1035 ft 138 kts 91°
2026-04-28 23:24 10.60451 -67.04408 879 ft 138 kts 91°
2026-04-28 23:24 10.60511 -67.03432 702 ft 139 kts 93°
2026-04-28 23:24 10.60548 -67.02482 517 ft 134 kts 90°
2026-04-28 23:25 10.60620 -67.01557 332 ft 124 kts 92°
2026-04-28 23:25 10.60652 -67.00735 243 ft 103 kts 87°
2026-04-28 23:25 10.60674 -67.00219 242 ft 48 kts 87°
2026-04-28 23:25 10.60689 -66.99987 242 ft 26 kts 83°
2026-04-28 23:26 10.60699 -66.99874 242 ft 25 kts 88°
2026-04-28 23:26 10.60707 -66.99651 242 ft 23 kts 90°
2026-04-28 23:26 10.60673 -66.99545 242 ft 11 kts 173°
2026-04-28 23:26 10.60596 -66.99540 242 ft 11 kts 177°
2026-04-28 23:27 10.60521 -66.99539 242 ft 10 kts 193°
2026-04-28 23:27 10.60496 -66.99599 242 ft 10 kts 265°
2026-04-28 23:27 10.60492 -66.99674 242 ft 11 kts 271°
2026-04-28 23:27 10.60489 -66.99753 242 ft 12 kts 266°
2026-04-28 23:28 10.60484 -66.99842 242 ft 13 kts 266°
2026-04-28 23:28 10.60479 -66.99936 242 ft 14 kts 266°
2026-04-28 23:28 10.60473 -67.00036 242 ft 15 kts 266°
2026-04-28 23:28 10.60433 -67.00079 242 ft 7 kts 173°
2026-04-28 23:29 10.60389 -67.00074 242 ft 7 kts 175°
2026-04-28 23:29 10.60342 -67.00072 242 ft 7 kts 179°
2026-04-28 23:29 10.60308 -67.00072 242 ft 8 kts 180°
2026-04-28 23:29 10.60263 -67.00071 242 ft 6 kts 178°
2026-04-28 23:30 10.60247 -67.00070 242 ft 0 kts 177°